• MPC Preparation (Info)

  • MPEC 2014-U141: 2014 UB176

    The following Minor Planet Electronic Circular may be linked-to from your own Web pages, but must not otherwise be redistributed electronically.

    A form allowing access to any MPEC is at the bottom of this page.


    Read MPEC 2014-U140 Read MPEC 2014-U142


    M.P.E.C. 2014-U141                               Issued 2014 Oct. 31, 14:48 UT
    
         The Minor Planet Electronic Circulars contain information on unusual
             minor planets and routine data on comets.  They are published
       on behalf of Commission 20 of the International Astronomical Union by the
              Minor Planet Center, Smithsonian Astrophysical Observatory,
                              Cambridge, MA 02138, U.S.A.
    
                 Prepared using the Tamkin Foundation Computer Network
    
                                  MPC@CFA.HARVARD.EDU
                URL https://www.minorplanetcenter.net/    ISSN 1523-6714
    
                                      2014 UB176
    
    Observations:
         K14UH6B* C2014 10 28.28908 02 27 54.69 +06 03 31.9          21.5 VqEU141G96
         K14UH6B  C2014 10 28.29388 02 27 54.45 +06 03 18.5          20.6 VqEU141G96
         K14UH6B  C2014 10 28.29868 02 27 54.15 +06 03 04.2          21.1 VqEU141G96
         K14UH6B  C2014 10 28.30626 02 27 53.84 +06 02 43.3          20.6 VqEU141G96
         K14UH6B  C2014 10 28.42474 02 27 48.803+05 57 06.74         21.6 wLEU141F51
         K14UH6B  C2014 10 28.44631 02 27 47.716+05 56 04.40         21.6 wLEU141F51
         K14UH6B  C2014 10 28.45704 02 27 47.185+05 55 33.26         21.4 wLEU141F51
         K14UH6B KC2014 10 29.25942 02 27 12.69 +05 16 51.4                oEU141291
         K14UH6B KC2014 10 29.26167 02 27 12.59 +05 16 45.2          21.2 RoEU141291
         K14UH6B KC2014 10 29.26392 02 27 12.48 +05 16 38.7          21.4 RoEU141291
         K14UH6B KC2014 10 30.33647 02 26 24.29 +04 24 20.7                oEU141291
         K14UH6B KC2014 10 30.33839 02 26 24.21 +04 24 14.8          20.8 RoEU141291
         K14UH6B KC2014 10 30.34031 02 26 24.10 +04 24 09.3          20.9 RoEU141291
         K14UH6B  C2014 10 31.23973 02 25 44.01 +03 39 46.4          22.0 VqEU141G96
         K14UH6B  C2014 10 31.24057 02 25 44.03 +03 39 43.3          21.6 VqEU141G96
         K14UH6B  C2014 10 31.24226 02 25 43.86 +03 39 38.7                qEU141G96
    
    Observer details:
    291 LPL/Spacewatch II.  Observer R. A. Mastaler.  1.8-m f/2.7 reflector + CCD.
    F51 Pan-STARRS 1, Haleakala.  Observers B. Gibson, T. Goggia, N. Primak,
        A. Schultz, M. Willman.  Measurers B. Bolin, K. Chambers, S. Chastel,
        L. Denneau, H. Flewelling, M. Huber, E. Magnier, E. Schunova, R. Wainscoat,
        C. Waters.  1.8-m Ritchey-Chretien + CCD.
    G96 Mt. Lemmon Survey.  Observers J. A. Johnson, A. R. Gibbs.  Measurers
        E. J. Christensen, A. R. Gibbs, A. D. Grauer, R. E. Hill, J. A. Johnson,
        R. A. Kowalski, S. M. Larson, F. C. Shelly.  1.5-m reflector + CCD.
    
    Orbital elements:
    2014 UB176                                               Earth MOID = 0.3815 AU
    Epoch 2014 Dec. 9.0 TT = JDT 2457000.5                  MPC
    M 336.53963              (2000.0)            P               Q
    n   0.39378835     Peri.  266.30368     -0.38685974     -0.90428336
    a   1.8434335      Node   208.66229     +0.92208721     -0.38141474
    e   0.3764079      Incl.   22.11690     -0.00973223     -0.19181869
    P   2.50           H   21.6           G   0.15           U   8
    Residuals in seconds of arc
    141028 G96  0.1+  0.2-    141028 F51  0.2+  0.3-    141030 291  0.3-  0.2+
    141028 G96  0.0   0.1+    141029 291  0.3-  0.3-    141031 G96  0.1+  0.1+
    141028 G96  0.9-  0.4-    141029 291  0.1-  0.0     141031 G96  1.1+  0.5-
    141028 G96  0.0   0.4+    141029 291  0.0   0.1+    141031 G96  0.1-  0.1-
    141028 F51  0.1+  0.4+    141030 291  0.4-  0.2+
    141028 F51  0.1+  0.0     141030 291  0.1-  0.0
    
    Ephemeris:
    2014 UB176               a,e,i = 1.84, 0.38, 22                  q = 1.1496
    Date    TT    R. A. (2000) Decl.     Delta      r     Elong.  Phase     V
    2014 10 01    02 35 55.3 +21 43 01   0.6985  1.6178   143.7    21.5    22.9
    ...
    2014 10 16    02 34 44.7 +14 42 58   0.5626  1.5407   161.4    11.9    22.0
    ...
    2014 10 24    02 30 46.9 +09 21 19   0.5097  1.4998   170.4     6.4    21.5
    ...
    2014 10 30    02 26 39.6 +04 41 00   0.4804  1.4694   170.7     6.3    21.3
    2014 10 31    02 25 54.6 +03 51 50   0.4765  1.4643   169.8     6.9    21.3
    2014 11 01    02 25 08.8 +03 02 07   0.4728  1.4593   168.8     7.6    21.3
    ...
    2014 11 07    02 20 25.8 -02 03 06   0.4561  1.4294   160.6    13.3    21.4
    ...
    2014 11 15    02 14 25.4 -08 46 14   0.4475  1.3905   148.5    21.8    21.6
    ...
    2014 11 30    02 07 52.0 -19 16 32   0.4644  1.3215   127.5    36.3    22.0
    
    A. U. Tomatic                (C) Copyright 2014 MPC           M.P.E.C. 2014-U141
    

    Read MPEC 2014-U140 Read MPEC 2014-U142


    MPEC number:

    Enter an MPEC number in one of the following forms:

    • 1997-B01 (the full form)
    • J97B01 (the packed version of the full form)
    • B01 (the abbreviated form)